Location: Newark
(42.8481°N, 0.4872°E)
Time: 16:50:21
(UTC+00:00)

Vanguard 3 - Pass Details

Date: 02 November 2020
Orbit: 508 x 3262 km, 33.3° (Epoch: 28 November)

Event Time Altitude Azimuth Distance (km) Brightness Sun altitude
Rises 02:54:37 0° 215° (SW) 5,199 - -40.3°
Reaches altitude 10° 02:57:55 10° 207° (SSW) 4,549 - -39.7°
Exits shadow 03:03:40 28° 185° (S) 3,792 10.2 -38.7°
Maximum altitude 03:10:07 38° 145° (SE) 3,727 10.4 -37.6°
Drops below altitude 10° 03:26:48 10° 87° (E) 6,193 12.4 -34.6°
Sets 03:32:12 0° 81° (E) 7,221 13.1 -33.6°
